TimeMST,TemperatureF,Dew PointF,Humidity,Sea Level PressureIn,VisibilityMPH,Wind Direction,Wind SpeedMPH,Gust SpeedMPH,PrecipitationIn,Events,Conditions,WindDirDegrees,DateUTC
12:53 AM,48.0,24.1,39,30.30,10.0,SSE,4.6,-,N/A,,Clear,160,2013-10-06 07:53:00
1:53 AM,46.9,24.1,41,30.29,10.0,Calm,Calm,-,N/A,,Clear,0,2013-10-06 08:53:00
2:53 AM,48.0,21.9,36,30.27,10.0,Calm,Calm,-,N/A,,Clear,0,2013-10-06 09:53:00
3:53 AM,46.9,21.9,37,30.28,10.0,South,3.5,-,N/A,,Clear,190,2013-10-06 10:53:00
4:53 AM,46.0,21.9,39,30.29,10.0,SW,4.6,-,N/A,,Clear,220,2013-10-06 11:53:00
5:53 AM,45.0,21.9,40,30.32,10.0,Calm,Calm,-,N/A,,Clear,0,2013-10-06 12:53:00
6:53 AM,46.0,23.0,40,30.33,10.0,Calm,Calm,-,N/A,,Clear,0,2013-10-06 13:53:00
7:53 AM,51.1,21.0,31,30.34,10.0,Calm,Calm,-,N/A,,Clear,0,2013-10-06 14:53:00
8:53 AM,53.1,21.0,29,30.34,10.0,Calm,Calm,-,N/A,,Clear,0,2013-10-06 15:53:00
9:53 AM,57.0,21.0,25,30.33,10.0,Variable,3.5,-,N/A,,Clear,0,2013-10-06 16:53:00
10:53 AM,61.0,21.9,22,30.31,10.0,North,4.6,-,N/A,,Clear,350,2013-10-06 17:53:00
11:53 AM,61.0,21.9,22,30.29,10.0,Calm,Calm,-,N/A,,Clear,0,2013-10-06 18:53:00
12:53 PM,66.0,21.0,18,30.25,10.0,South,3.5,-,N/A,,Clear,170,2013-10-06 19:53:00
1:53 PM,66.0,21.0,18,30.21,10.0,Calm,Calm,-,N/A,,Clear,0,2013-10-06 20:53:00
2:53 PM,69.1,21.9,17,30.18,10.0,NE,4.6,-,N/A,,Clear,40,2013-10-06 21:53:00
3:53 PM,69.1,21.9,17,30.17,10.0,NNW,4.6,-,N/A,,Clear,330,2013-10-06 22:53:00
4:53 PM,69.1,24.1,18,30.16,10.0,North,4.6,-,N/A,,Clear,360,2013-10-06 23:53:00
5:53 PM,64.9,25.0,22,30.16,10.0,Calm,Calm,-,N/A,,Clear,0,2013-10-07 00:53:00
6:53 PM,60.1,28.9,31,30.18,10.0,Calm,Calm,-,N/A,,Clear,0,2013-10-07 01:53:00
7:53 PM,60.1,27.0,28,30.17,10.0,SSE,3.5,-,N/A,,Clear,150,2013-10-07 02:53:00
8:53 PM,57.9,27.0,31,30.17,10.0,SSE,3.5,-,N/A,,Clear,160,2013-10-07 03:53:00
9:53 PM,55.9,28.9,36,30.17,10.0,Calm,Calm,-,N/A,,Clear,0,2013-10-07 04:53:00
10:53 PM,54.0,28.0,37,30.16,10.0,WSW,3.5,-,N/A,,Clear,250,2013-10-07 05:53:00
11:53 PM,53.1,27.0,37,30.16,10.0,Calm,Calm,-,N/A,,Clear,0,2013-10-07 06:53:00